1532275200.61,29074,21.56,73896.8,6.61,5.27,5.33,0,*71
1532275201.84,29075,21.56,73894.8,6.59,5.55,5.55,0,*7E
1532275203.02,29076,21.56,73892.3,6.59,5.59,5.49,0,*7C
1532275204.19,29077,21.56,73894.8,6.59,5.45,5.37,0,*79
1532275205.37,29078,21.56,73894.0,6.59,5.49,5.37,0,*7A
1532275206.57,29079,21.56,73896.0,6.59,5.27,5.33,0,*77
1532275207.77,29080,21.56,73894.3,6.57,5.29,5.29,0,*7A
1532275208.97,29081,21.56,73898.5,6.57,5.33,5.29,0,*70
1532275210.17,29082,21.56,73896.5,6.57,5.29,5.29,0,*78
1532275211.37,29083,21.56,73896.8,6.57,5.29,5.29,0,*79
1532275212.57,29084,21.56,73898.3,6.57,5.41,5.41,0,*7E
1532275213.77,29085,21.56,73896.0,6.53,5.41,5.29,0,*75
1532275215.02,29086,21.56,73896.5,6.57,5.55,5.51,0,*78
1532275216.24,29087,21.56,73894.8,6.53,5.49,5.51,0,*70
1532275217.45,29088,21.56,73894.3,6.53,5.59,5.59,0,*76
1532275218.65,29089,21.56,73896.5,6.57,5.67,5.63,0,*77
1532275219.9,29090,21.56,73896.5,6.57,5.55,5.55,0,*7B
1532275221.13,29091,21.56,73898.3,6.57,5.51,5.41,0,*7B
1532275222.33,29092,21.56,73898.5,6.57,5.29,5.29,0,*79
1532275223.54,29093,21.56,73896.0,6.51,5.07,5.07,0,*7E
1532275224.77,29094,21.56,73896.0,6.51,4.81,4.79,0,*7E
1532275226.03,29095,21.56,73900.3,6.51,5.01,4.93,0,*72
1532275227.23,29096,21.56,73896.3,6.51,5.15,5.15,0,*7B
1532275228.43,29097,21.56,73898.5,6.51,5.29,5.29,0,*7A
1532275229.6,29098,21.56,73896.8,6.49,5.49,5.45,0,*70
1532275230.81,29099,21.56,73896.0,6.51,5.59,5.59,0,*74
1532275232.02,29100,21.56,73898.5,6.51,5.63,5.59,0,*7C
1532275233.23,29101,21.56,73898.5,6.51,5.59,5.59,0,*74
1532275234.4,29102,21.56,73898.3,6.49,5.45,5.45,0,*7E
1532275235.59,29103,21.56,73896.5,6.51,5.29,5.29,0,*76
1532275236.79,29104,21.56,73896.5,6.51,5.41,5.41,0,*71
1532275238.05,29105,21.56,73898.5,6.51,5.51,5.51,0,*70
1532275239.21,29106,21.56,73898.8,6.49,5.45,5.45,0,*7A
1532275240.38,29107,21.56,73894.3,6.49,5.45,5.37,0,*7E
1532275241.56,29108,21.56,73896.8,6.49,5.59,5.59,0,*74
1532275242.75,29109,21.56,73894.0,6.49,5.59,5.67,0,*78
1532275243.95,29110,21.56,73894.8,6.51,5.59,5.59,0,*74
1532275245.18,29111,21.56,73894.3,6.49,5.55,5.55,0,*7C
1532275246.36,29112,21.56,73894.3,6.49,5.67,5.67,0,*7F
1532275247.62,29113,21.5,73890.5,6.51,5.81,5.81,0,*77
1532275248.86,29114,21.56,73894.8,6.53,5.85,5.89,0,*7E
1532275250.09,29115,21.56,73896.0,6.49,5.85,5.85,0,*78
1532275251.32,29116,21.56,73892.0,6.51,5.99,5.89,0,*73
1532275252.53,29117,21.56,73896.3,6.51,5.95,5.99,0,*7F
1532275253.74,29118,21.56,73894.5,6.53,5.95,5.95,0,*7E
1532275254.97,29119,21.56,73898.8,6.49,5.81,5.81,0,*74
1532275256.22,29120,21.56,73898.5,6.51,5.85,5.89,0,*7B
1532275257.47,29121,21.56,73896.0,6.51,5.85,5.85,0,*76
1532275258.73,29122,21.56,73898.3,6.51,5.89,5.89,0,*75
1532275259.98,29123,21.56,73898.0,6.51,5.85,5.85,0,*74
1532275261.24,29124,21.56,73896.8,6.51,5.85,5.85,0,*73
1532275262.49,29125,21.56,73896.8,6.51,5.85,5.89,0,*7E
1532275263.74,29126,21.5,73896.0,6.51,5.85,5.85,0,*71
1532275265.0,29127,21.56,73898.3,6.51,5.85,5.89,0,*7C
1532275266.2,29128,21.56,73902.3,6.53,5.99,5.95,0,*71
1532275267.41,29129,21.56,73902.0,6.53,5.99,6.11,0,*7F
1532275268.61,29130,21.56,73900.0,6.51,6.07,6.07,0,*76
                                                      